Flag for Norfolk Island Weather past 2 weeks in Kingston, Norfolk Island

Now
77 °F

Scattered clouds.


Feels Like: 79 °F
Forecast: 70 / 77 °F
Wind: 17 mph from East

Location: Norfolk Island Airport

Current Time: Dec 27, 2014 at 3:30:58 PM

Latest Report: Dec 27, 2014 at 2:30 PM


Visibility: N/A

Pressure: 30.04 "Hg

Humidity: 74%

Dew point: 68 °F

Location of KingstonLocation

Historic Weather in Kingston — Graph

°F

Kingston temperature yesterday

Maximum temperature yesterday: 77 °F (at 11:00 AM)
Minimum temperature yesterday: 70 °F (at 12:00 AM)
Average temperature yesterday: 73 °F

Past Weeks' High & Low Weather Summary

 TemperatureHumidityPressure
High77 °F (Dec 13, 12:00 PM)100% (Dec 13, 9:00 PM)30.07 "Hg (Dec 13, 9:00 PM)
Low66 °F (Dec 14, 7:00 PM)65% (Dec 12, 2:00 PM)29.42 "Hg (Dec 16, 2:30 AM)
Average71 °F87%29.88 "Hg
* Reported Dec 12 1:30 PM — Dec 27 2:00 PM, Kingston, Weather by CustomWeather, © 2014

Note: Actual official high and low records may vary slightly from our data, if they occured in-between our weather recording intervals... More about our weather records

Advertising

Kingston weather history for previous 24 hours

 ConditionsComfort  
Time TempWeatherWind HumidityBarometerVisibility
2:00 PM
Dec 27
77 °FScattered clouds.17 mph74%30.04 "HgN/A
1:30 PM77 °FScattered clouds.18 mph74%30.04 "HgN/A
12:30 PM75 °FScattered clouds.17 mph78%30.07 "HgN/A
12:00 PM77 °FScattered clouds.15 mph69%30.07 "HgN/A
11:30 AM77 °FScattered clouds.20 mph74%30.04 "HgN/A
11:00 AM75 °FScattered clouds.18 mph78%30.04 "HgN/A
10:30 AM75 °FScattered clouds.20 mph78%30.04 "HgN/A
10:00 AM75 °FScattered clouds.17 mph78%30.07 "HgN/A
9:30 AM75 °FPassing clouds.16 mph78%30.07 "HgN/A
9:00 AM75 °FPassing clouds.17 mph74%30.07 "HgN/A
8:30 AM75 °FPassing clouds.18 mph74%30.07 "HgN/A
8:00 AM73 °FPassing clouds.16 mph78%30.07 "HgN/A
7:30 AM73 °FPassing clouds.18 mph78%30.07 "HgN/A
7:00 AM72 °FPassing clouds.10 mph83%30.07 "HgN/A
6:30 AM72 °FSunny.10 mph83%30.07 "HgN/A
5:30 AM70 °FSunny.9 mph88%30.04 "HgN/A
5:00 AM70 °FSunny.10 mph88%30.04 "HgN/A
4:30 AM70 °FClear.10 mph88%30.01 "HgN/A
3:30 AM70 °FPassing clouds.10 mph88%30.01 "HgN/A
2:30 AM70 °FPartly cloudy.12 mph88%30.01 "HgN/A
2:00 AM70 °FPassing clouds.13 mph88%30.01 "HgN/A
1:30 AM70 °FPassing clouds.12 mph88%30.04 "HgN/A
1:00 AM70 °FPassing clouds.15 mph88%30.04 "HgN/A
12:30 AM70 °FPassing clouds.13 mph88%30.04 "HgN/A
12:00 AM70 °FClear.14 mph88%30.04 "HgN/A
11:30 PM
Dec 26
70 °FPassing clouds.13 mph88%30.07 "HgN/A
11:00 PM72 °FPartly cloudy.14 mph83%30.07 "HgN/A
10:30 PM72 °FPartly cloudy.13 mph83%30.07 "HgN/A
10:00 PM72 °FOvercast.13 mph83%30.07 "HgN/A
9:30 PM72 °FPartly cloudy.13 mph88%30.04 "HgN/A
9:00 PM72 °FMostly cloudy.14 mph83%30.04 "HgN/A
8:30 PM72 °FOvercast.14 mph83%30.04 "HgN/A
8:00 PM72 °FOvercast.15 mph83%30.04 "HgN/A
7:30 PM72 °FMostly cloudy.16 mph83%30.01 "HgN/A
7:00 PM72 °FOvercast.16 mph83%30.01 "HgN/A
6:30 PM73 °FMostly cloudy.15 mph78%30.01 "HgN/A
6:00 PM73 °FScattered clouds.17 mph78%30.01 "HgN/A
5:30 PM75 °FScattered clouds.16 mph74%30.01 "HgN/A
5:00 PM75 °FScattered clouds.18 mph74%30.01 "HgN/A
4:30 PM75 °FScattered clouds.16 mph74%30.01 "HgN/A
4:00 PM75 °FScattered clouds.21 mph74%29.98 "HgN/A
3:30 PM75 °FPartly sunny.21 mph74%30.01 "HgN/A
3:00 PM75 °FBroken clouds.17 mph74%30.01 "HgN/A
Weather by CustomWeather, © 2014

See weather overviewHow to use our weather pages